DateTime,F1_A11,F1_S11,BsB_S11,BsG_S11,BsR_S11,BbsB_S11,BbsG_S11,BbsR_S11,BaB_A11,BaG_A11,BaR_A11,T_S11,U_S11,P_S11,T1_A11
2016-08-10T00:00:00Z,0000380,20000600,,,,,,,,,,27.8,04.5,0669.9,34.9
2016-08-10T00:01:00Z,0000380,20000600,,,,,,,,,,27.8,04.5,0669.9,34.9
2016-08-10T00:02:00Z,0000380,20000600,,,,,,,,,,27.8,04.5,0669.9,34.9
2016-08-10T00:03:00Z,0000380,60000600,,,,,,,,,,27.9,04.5,0669.9,34.9
2016-08-10T00:04:00Z,0000380,40000600,0004.15,0002.82,0001.38,0000.52,0000.06,0000.36,0000.37,0000.29,0000.27,28.0,04.6,0670.9,34.9
2016-08-10T00:05:00Z,0000380,00000600,0004.80,0003.33,0001.42,0000.19,0000.47,0000.40,0000.06,0000.02,0000.26,28.1,04.4,0670.9,34.9
2016-08-10T00:06:00Z,0000380,00000600,0004.22,0002.99,0001.56,0000.24,0000.61,0000.32,0000.14,0000.36,-000.14,28.0,04.5,0670.9,34.9
2016-08-10T00:07:00Z,0000380,00000600,0004.20,0003.07,0001.34,0000.65,0000.38,-000.05,0000.41,0000.17,0000.19,28.0,04.5,0671.0,34.9
2016-08-10T00:08:00Z,0000380,00000600,0003.82,0002.88,0001.55,0000.06,0000.17,0000.16,0000.05,0000.18,0000.11,28.0,04.5,0671.0,34.9
2016-08-10T00:09:00Z,0000380,00000600,0004.07,0002.51,0001.92,0000.55,0000.16,0000.03,0000.37,0000.27,0000.32,28.0,04.4,0671.0,34.9
2016-08-10T00:10:00Z,0000380,00000600,0003.99,0003.10,0001.50,0000.21,-000.02,0000.30,0000.18,0000.04,0000.18,28.0,04.5,0670.9,34.9
2016-08-10T00:11:00Z,0000380,00000600,0003.77,0003.16,0001.40,0000.44,0000.25,0000.25,0000.46,0000.24,0000.14,28.0,04.5,0670.9,34.9
2016-08-10T00:12:00Z,0000380,00000600,0004.84,0003.13,0001.43,0000.08,0000.54,0000.13,-000.02,0000.30,0000.11,28.0,04.5,0670.9,34.9
2016-08-10T00:13:00Z,0000380,00000600,0004.03,0003.20,0001.07,0000.29,0000.58,0000.21,0000.27,0000.29,0000.19,28.0,04.4,0670.8,34.9
2016-08-10T00:14:00Z,0000380,00000600,0004.04,0003.17,0001.17,-000.05,0000.38,-000.03,0000.25,0000.17,0000.27,28.0,04.4,0670.9,34.9
2016-08-10T00:15:00Z,0000380,00000600,0004.13,0002.83,0001.87,0000.24,0000.22,0000.14,0000.06,0000.14,0000.34,28.0,04.4,0670.9,34.9
2016-08-10T00:16:00Z,0000380,00000600,0005.77,0003.20,0001.12,0000.40,0000.49,0000.22,0000.49,0000.21,-000.10,28.0,04.5,0670.9,34.9
2016-08-10T00:17:00Z,0000380,00000600,0004.19,0002.94,0001.50,0000.89,0000.17,-000.10,0000.29,0000.25,0000.42,28.0,04.4,0670.9,34.9
2016-08-10T00:18:00Z,0000380,00000600,0004.37,0003.02,0002.02,0000.68,0000.28,0000.51,0000.30,0000.14,-000.15,28.0,04.3,0670.8,34.9
2016-08-10T00:19:00Z,0000380,00000600,0004.50,0002.92,0002.16,0001.24,0000.11,0000.24,0000.20,0000.28,0000.09,28.0,04.4,0670.8,34.9
2016-08-10T00:20:00Z,0000380,00000600,0003.80,0003.09,0001.65,-000.17,0000.14,0000.43,0000.16,0000.27,0000.42,28.0,04.4,0670.9,34.9
2016-08-10T00:21:00Z,0000380,00000600,0004.26,0003.32,0001.69,0001.06,0000.32,0000.19,0000.15,-000.02,-000.09,28.0,04.3,0670.8,34.9
2016-08-10T00:22:00Z,0000380,00000600,0004.72,0003.02,0001.86,0000.59,0000.62,0000.29,0000.39,0000.19,0000.28,28.0,04.4,0670.8,34.9
2016-08-10T00:23:00Z,0000380,00000600,0003.86,0003.30,0001.98,0000.68,-000.11,0000.19,0000.15,0000.23,0000.14,28.0,04.3,0670.8,34.9
2016-08-10T00:24:00Z,0000380,00000600,0004.13,0003.30,0001.20,0000.73,0000.30,0000.51,0000.25,0000.32,0000.14,28.0,04.3,0670.8,34.9
2016-08-10T00:25:00Z,0000380,00000600,0004.93,0003.37,0001.67,0000.79,0000.43,0000.10,0000.47,0000.18,0000.23,28.0,04.4,0670.8,34.9
2016-08-10T00:26:00Z,0000380,00000600,0004.79,0003.47,0001.60,0001.05,0000.17,-000.16,-000.09,0000.25,0000.12,28.0,04.3,0670.8,34.9
2016-08-10T00:27:00Z,0000380,00000600,0004.17,0003.35,0001.62,0000.92,0000.33,0000.02,0000.29,0000.25,0000.22,28.0,04.4,0670.8,34.9
2016-08-10T00:28:00Z,0000380,00000600,0003.73,0003.13,0001.82,0000.41,-000.28,0000.08,0000.32,0000.01,-000.07,28.0,04.3,0670.9,34.9
2016-08-10T00:29:00Z,0000380,00000600,0004.58,0002.81,0001.83,0000.67,0000.30,0000.21,0000.10,0000.40,0000.43,28.0,04.3,0670.9,34.9
2016-08-10T00:30:00Z,0000380,00000600,0004.33,0003.71,0001.70,0000.41,0000.03,0000.24,0000.51,0000.18,-000.15,28.0,04.4,0670.9,34.8
2016-08-10T00:31:00Z,0000380,00000600,0004.10,0002.73,0001.57,0000.95,0000.02,0000.19,0000.04,0000.15,0000.38,28.0,04.4,0670.9,34.8
2016-08-10T00:32:00Z,0000380,00000600,0003.38,0003.30,0001.67,0000.25,-000.11,-000.08,0000.15,0000.24,0000.16,28.0,04.3,0670.9,34.8
2016-08-10T00:33:00Z,0000380,00000600,0003.99,0003.42,0001.84,0000.19,0000.61,-000.21,0000.48,0000.08,0000.47,28.0,04.4,0670.9,34.8
2016-08-10T00:34:00Z,0000380,00000600,0003.97,0003.31,0001.63,0000.86,0000.49,-000.02,0000.14,0000.47,-000.13,28.0,04.4,0670.9,34.8
2016-08-10T00:35:00Z,0000380,00000600,0004.72,0003.18,0001.83,-000.03,0000.35,0000.06,0000.29,0000.18,0000.17,28.0,04.4,0670.8,34.8
2016-08-10T00:36:00Z,0000380,00000600,0005.22,0002.59,0001.39,0000.44,0000.43,0000.14,0000.25,0000.23,0000.10,28.0,04.3,0670.9,34.8
2016-08-10T00:37:00Z,0000380,00000600,0004.60,0003.10,0001.96,0000.25,-000.09,0000.59,0000.29,0000.21,0000.31,28.0,04.4,0670.9,34.8
2016-08-10T00:38:00Z,0000380,00000600,0005.07,0002.94,0001.65,0000.54,0000.03,0000.02,0000.14,0000.12,0000.17,28.0,04.3,0670.9,34.8
2016-08-10T00:39:00Z,0000380,00000600,0004.15,0002.62,0001.44,0000.27,0000.50,0000.19,0000.23,0000.37,0000.04,28.0,04.3,0670.9,34.8
2016-08-10T00:40:00Z,0000380,00000600,0003.43,0003.06,0002.00,0000.16,0000.09,0000.13,0000.24,-000.01,0000.24,28.0,04.3,0670.8,34.8
2016-08-10T00:41:00Z,0000380,00000600,0004.34,0003.17,0001.88,0000.60,0000.47,0000.36,0000.09,0000.28,0000.26,28.0,04.3,0670.9,34.8
2016-08-10T00:42:00Z,0000380,00000600,0003.87,0003.16,0001.79,0000.54,0000.57,0000.14,0000.50,0000.22,0000.07,28.0,04.4,0670.8,34.8
2016-08-10T00:43:00Z,0000380,00000600,0003.87,0003.62,0001.51,0000.38,0000.54,0000.13,-000.13,0000.12,0000.08,28.0,04.3,0670.8,34.8
2016-08-10T00:44:00Z,0000380,00000600,0004.56,0003.12,0001.51,0000.59,-000.22,0000.29,0000.41,0000.21,0000.20,28.0,04.3,0670.8,34.8
2016-08-10T00:45:00Z,0000380,00000600,0004.02,0002.68,0001.67,0000.25,0000.09,0000.03,0000.18,0000.27,0000.26,28.0,04.3,0670.8,34.9
2016-08-10T00:46:00Z,0000380,00000600,0004.16,0003.05,0001.48,0000.84,0000.14,0000.13,0000.34,0000.14,-000.08,28.0,04.3,0670.8,34.9
2016-08-10T00:47:00Z,0000380,00000600,0003.50,0002.99,0001.92,0000.22,0000.35,0000.27,0000.34,0000.03,0000.02,28.0,04.3,0670.8,34.9
2016-08-10T00:48:00Z,0000380,00000600,0004.81,0002.71,0001.38,0000.06,0000.49,0000.25,0000.04,0000.30,0000.41,28.0,04.3,0670.9,34.9
2016-08-10T00:49:00Z,0000380,00000600,0004.56,0003.46,0001.61,0000.89,-000.03,0000.11,0000.24,0000.30,0000.16,28.0,04.3,0670.9,34.9
2016-08-10T00:50:00Z,0000380,00000600,0005.14,0002.75,0001.60,-000.16,0000.39,0000.21,0000.38,0000.14,-000.15,28.0,04.4,0670.9,34.9
2016-08-10T00:51:00Z,0000380,00000600,0003.80,0002.72,0001.41,0000.79,0000.05,0000.17,0000.09,0000.18,0000.35,28.0,04.3,0670.9,34.9
2016-08-10T00:52:00Z,0000380,00000600,0004.95,0003.55,0001.48,0001.06,0000.24,0000.27,0000.19,0000.31,0000.15,28.0,04.2,0670.9,34.9
2016-08-10T00:53:00Z,0000380,00000600,0004.72,0003.01,0001.06,0000.24,0000.57,0000.17,0000.26,0000.06,0000.07,28.0,04.3,0670.9,34.9
2016-08-10T00:54:00Z,0000380,00000600,0004.64,0003.05,0001.73,0000.48,0000.21,0000.19,0000.14,0000.15,0000.15,28.0,04.3,0670.8,34.9
2016-08-10T00:55:00Z,0000380,00000600,0003.24,0003.25,0001.72,0000.54,0000.46,0000.19,0000.26,0000.35,0000.45,28.0,04.2,0670.8,34.9
2016-08-10T00:56:00Z,0000380,00000600,0003.97,0003.36,0001.26,0000.51,0000.66,0000.11,0000.22,0000.10,-000.24,28.0,04.2,0670.8,34.9
2016-08-10T00:57:00Z,0000380,40000600,,,,,,,,,,,,0671.0,34.9
2016-08-10T00:58:00Z,0000380,60000600,,,,,,,,,,27.8,04.3,0670.0,34.9
2016-08-10T00:59:00Z,0000380,20000600,,,,,,,,,,27.8,04.3,0669.9,34.9
2016-08-10T01:00:00Z,0000380,20000600,,,,,,,,,,27.8,04.3,0669.9,34.9
2016-08-10T01:01:00Z,0000380,20000600,,,,,,,,,,27.8,04.3,0669.9,34.9
2016-08-10T01:02:00Z,0000380,20000600,,,,,,,,,,27.8,04.3,0669.9,34.9
2016-08-10T01:03:00Z,0000380,60000600,,,,,,,,,,27.9,04.3,0669.9,34.9
2016-08-10T01:04:00Z,0000380,40000600,0004.70,0003.09,0001.38,-000.08,0000.63,0000.13,0000.26,0000.33,0000.01,28.0,04.2,0670.8,34.9
2016-08-10T01:05:00Z,0000380,00000600,0003.31,0002.93,0001.45,0000.02,0000.08,0000.25,0000.19,0000.20,0000.55,28.0,04.2,0670.9,34.9
2016-08-10T01:06:00Z,0000380,00000600,0003.93,0002.79,0001.92,0000.36,-000.13,0000.14,0000.22,0000.25,-000.08,28.0,04.2,0670.9,34.9
2016-08-10T01:07:00Z,0000380,00000600,0003.70,0002.77,0001.78,0000.27,0000.20,0000.55,0000.24,0000.10,0000.12,28.0,04.2,0670.9,34.9
2016-08-10T01:08:00Z,0000380,00000600,0003.86,0002.78,0001.86,0000.48,0000.00,0000.30,0000.40,0000.12,0000.39,28.0,04.3,0670.9,34.9
2016-08-10T01:09:00Z,0000380,00000600,0004.01,0002.95,0001.85,0000.95,0000.02,0000.11,0000.49,0000.41,0000.16,28.0,04.3,0670.9,34.9
2016-08-10T01:10:00Z,0000380,00000600,0003.93,0003.10,0001.81,0000.09,0000.09,0000.16,-000.04,0000.12,0000.08,27.9,04.3,0670.9,34.9
2016-08-10T01:11:00Z,0000380,00000600,0003.97,0003.69,0002.14,0000.73,0000.90,0000.44,0000.23,0000.21,0000.25,27.9,04.3,0670.9,34.9
2016-08-10T01:12:00Z,0000380,00000600,0003.18,0003.38,0001.99,0000.97,0000.47,0000.62,0000.46,0000.23,-000.10,27.9,04.4,0670.9,34.9
2016-08-10T01:13:00Z,0000380,00000600,0004.50,0002.64,0001.84,0001.27,0000.84,0000.36,0000.02,0000.04,0000.48,28.0,04.4,0670.9,34.9
2016-08-10T01:14:00Z,0000380,00000600,0003.70,0002.79,0001.96,0000.25,0000.39,-000.03,0000.12,0000.29,0000.04,27.9,04.3,0670.9,34.9
2016-08-10T01:15:00Z,0000380,00000600,0004.71,0002.98,0001.78,0001.22,0000.25,0000.41,0000.30,0000.11,0000.03,28.0,04.3,0670.9,34.9
2016-08-10T01:16:00Z,0000380,00000600,0003.94,0003.48,0002.11,0000.51,0000.28,0000.22,0000.13,0000.29,0000.32,28.0,04.2,0670.9,34.9
2016-08-10T01:17:00Z,0000380,00000600,0003.02,0003.37,0001.76,0000.35,0000.58,0000.21,0000.39,0000.14,-000.04,28.0,04.3,0670.9,34.9
2016-08-10T01:18:00Z,0000380,00000600,0003.84,0002.83,0001.41,0000.06,0000.61,0000.16,0000.11,0000.31,0000.22,28.0,04.3,0670.9,34.9
2016-08-10T01:19:00Z,0000380,00000600,0003.90,0002.68,0001.74,0000.16,-000.02,0000.16,0000.26,0000.27,0000.23,28.0,04.3,0670.9,34.9
2016-08-10T01:20:00Z,0000380,00000600,0003.86,0003.70,0001.30,0001.08,0000.80,0000.21,0000.25,-000.04,-000.05,28.0,04.3,0670.9,34.9
2016-08-10T01:21:00Z,0000380,00000600,0004.59,0003.07,0001.97,0000.40,0000.20,0000.51,0000.21,0000.15,0000.18,27.9,04.2,0670.9,34.9
2016-08-10T01:22:00Z,0000380,00000600,0004.15,0003.38,0002.10,0001.00,-000.09,0000.43,0000.04,0000.23,-000.28,27.9,04.2,0670.9,34.9
2016-08-10T01:23:00Z,0000380,00000600,0003.96,0002.56,0001.57,0001.17,0000.20,0000.35,0000.44,0000.08,0000.50,27.9,04.3,0670.9,34.9
2016-08-10T01:24:00Z,0000380,00000600,0003.03,0002.68,0001.75,0000.90,0000.36,0000.32,-000.18,0000.23,0000.19,27.9,04.2,0670.9,34.9
2016-08-10T01:25:00Z,0000380,00000600,0004.47,0003.67,0002.22,0000.52,0000.77,-000.03,0000.40,0000.29,0000.14,28.0,04.2,0670.9,34.9
2016-08-10T01:26:00Z,0000380,00000600,0003.79,0002.63,0001.57,-000.22,0000.54,-000.08,0000.21,0000.10,0000.27,27.9,04.2,0670.9,34.9
2016-08-10T01:27:00Z,0000380,00000600,0003.53,0002.15,0001.24,0000.68,0000.36,0000.02,0000.21,0000.15,-000.18,27.9,04.2,0670.9,34.9
2016-08-10T01:28:00Z,0000380,00000600,0003.66,0002.91,0001.60,-000.33,0000.63,-000.02,0000.39,0000.30,0000.57,27.9,04.2,0670.9,34.9
2016-08-10T01:29:00Z,0000380,00000600,0003.36,0002.47,0002.07,0000.47,0000.36,-000.13,-000.03,0000.26,-000.27,27.9,04.1,0670.9,34.9
2016-08-10T01:30:00Z,0000380,00000600,0004.05,0002.96,0001.14,0001.12,-000.11,0000.30,0000.35,-000.14,0000.46,27.8,04.1,0670.9,34.8
2016-08-10T01:31:00Z,0000380,00000600,0003.02,0002.98,0001.36,0000.11,0000.49,0000.14,0000.24,0000.03,-000.40,27.8,04.2,0670.9,34.8
2016-08-10T01:32:00Z,0000380,00000600,0003.28,0003.04,0001.35,0000.65,0000.68,0000.40,0000.25,0000.44,0000.44,27.8,04.2,0670.9,34.8
2016-08-10T01:33:00Z,0000380,00000600,0003.79,0003.36,0001.50,0000.92,0000.13,0000.46,0000.03,0000.22,0000.07,27.8,04.2,0670.8,34.8
2016-08-10T01:34:00Z,0000380,00000600,0004.81,0002.98,0001.32,0001.06,0000.08,0000.43,0000.37,0000.34,0000.01,27.9,04.2,0670.9,34.8
2016-08-10T01:35:00Z,0000380,00000600,0004.35,0002.83,0001.64,0000.05,0000.09,0000.17,0000.19,-000.01,0000.03,27.9,04.1,0670.9,34.8
2016-08-10T01:36:00Z,0000380,00000600,0003.84,0002.44,0001.95,0000.44,0000.11,0000.22,0000.23,0000.35,0000.64,27.9,04.1,0670.9,34.8
2016-08-10T01:37:00Z,0000380,00000600,0004.06,0003.11,0001.85,0000.44,0000.69,0000.48,0000.44,0000.01,-000.10,27.9,04.2,0670.9,34.8
2016-08-10T01:38:00Z,0000380,00000600,0004.03,0003.40,0000.99,0000.09,0000.39,-000.05,-000.05,0000.21,0000.24,27.9,04.2,0670.9,34.8
2016-08-10T01:39:00Z,0000380,00000600,0003.95,0002.90,0001.55,0000.51,0000.36,0000.46,0000.12,0000.36,0000.19,27.9,04.1,0670.9,34.8
2016-08-10T01:40:00Z,0000380,00000600,0003.77,0002.71,0001.45,0000.60,0000.57,0000.60,0000.41,0000.05,0000.15,27.9,04.1,0670.8,34.8
2016-08-10T01:41:00Z,0000380,00000600,0004.47,0002.85,0000.69,0000.22,0000.84,0000.16,0000.19,0000.09,0000.11,27.9,04.1,0670.9,34.8
2016-08-10T01:42:00Z,0000380,00000600,0003.94,0003.46,0002.14,-000.02,0000.16,0000.46,0000.11,0000.29,0000.23,27.9,04.2,0670.9,34.8
2016-08-10T01:43:00Z,0000380,00000600,0005.07,0003.16,0001.60,0000.70,0000.36,0000.14,0000.12,0000.05,-000.04,27.9,04.1,0670.9,34.8
2016-08-10T01:44:00Z,0000380,00000600,0003.02,0002.84,0001.63,0000.62,0000.58,0000.10,0000.29,-000.04,0000.32,27.9,04.1,0670.9,34.8
2016-08-10T01:45:00Z,0000380,00000600,0003.24,0003.29,0001.34,0000.40,-000.22,0000.22,-000.08,0000.42,-000.25,27.9,04.0,0670.8,34.8
2016-08-10T01:46:00Z,0000380,00000600,0003.07,0002.81,0001.89,-000.09,0000.03,0000.30,0000.15,0000.14,0000.45,27.9,04.1,0670.8,34.8
2016-08-10T01:47:00Z,0000380,00000600,0003.63,0002.81,0001.64,0000.68,0000.11,0000.48,0000.20,0000.06,-000.13,27.8,04.0,0670.8,34.8
2016-08-10T01:48:00Z,0000380,00000600,0004.27,0002.66,0001.99,0000.41,0000.41,0000.22,0000.44,0000.31,0000.36,27.8,04.1,0670.9,34.8
2016-08-10T01:49:00Z,0000380,00000600,0002.75,0002.92,0001.66,0000.68,0000.25,0000.21,0000.21,0000.14,0000.08,27.9,03.9,0670.9,34.8
2016-08-10T01:50:00Z,0000380,00000600,0004.45,0002.71,0001.16,0000.81,0000.30,0000.17,0000.21,0000.28,-000.13,27.9,04.1,0670.9,34.8
2016-08-10T01:51:00Z,0000380,00000600,0004.09,0003.26,0001.62,0000.57,0000.63,0000.27,0000.08,0000.03,0000.25,27.8,04.0,0670.9,34.8
2016-08-10T01:52:00Z,0000380,00000600,0003.88,0002.69,0001.66,0000.17,0000.28,0000.08,0000.29,0000.22,0000.73,27.9,04.0,0670.9,34.8
2016-08-10T01:53:00Z,0000380,00000600,0003.69,0002.84,0001.34,0000.79,0000.14,0000.36,0000.12,-000.07,-000.48,27.8,04.0,0670.9,34.8
2016-08-10T01:54:00Z,0000380,00000600,0004.21,0003.05,0001.65,0000.06,0000.35,0000.54,0000.20,0000.26,0000.12,27.8,04.0,0670.8,34.8
2016-08-10T01:55:00Z,0000380,00000600,0003.44,0002.82,0001.71,0000.17,0000.55,0000.55,0000.13,0000.23,0000.20,27.8,04.0,0670.8,34.8
2016-08-10T01:56:00Z,0000380,00000600,0003.80,0002.32,0001.53,0000.28,0000.32,0000.08,0000.24,0000.15,0000.05,27.8,04.0,0670.8,34.8
2016-08-10T01:57:00Z,0000380,40000600,,,,,,,,,,,,0671.0,34.8
2016-08-10T01:58:00Z,0000380,60000600,,,,,,,,,,27.7,04.0,0669.9,34.8
2016-08-10T01:59:00Z,0000380,20000600,,,,,,,,,,27.7,03.9,0669.8,34.8
2016-08-10T02:00:00Z,0000380,20000600,,,,,,,,,,27.7,03.9,0669.8,34.8
2016-08-10T02:01:00Z,0000380,20000600,,,,,,,,,,27.7,03.9,0669.8,34.8
2016-08-10T02:02:00Z,0000380,20000600,,,,,,,,,,27.7,03.9,0669.8,34.8
2016-08-10T02:03:00Z,0000380,60000600,,,,,,,,,,27.7,03.9,0669.8,34.8
2016-08-10T02:04:00Z,0000380,40000600,0003.71,0002.56,0001.84,0000.92,0000.52,0000.06,0000.21,-000.06,-000.28,27.8,04.1,0670.8,34.8
2016-08-10T02:05:00Z,0000380,00000600,0002.26,0002.81,0001.89,0000.33,0000.24,0000.57,0000.02,0000.27,-000.17,27.8,04.0,0670.8,34.8
2016-08-10T02:06:00Z,0000380,00000600,0003.07,0002.34,0001.88,0001.44,0000.22,0000.40,0000.14,0000.17,0000.09,27.8,04.0,0670.8,34.8
2016-08-10T02:07:00Z,0000380,00000600,0002.83,0003.04,0002.05,0000.19,0000.32,0000.62,0000.26,0000.01,0000.14,27.8,04.0,0670.8,34.8
2016-08-10T02:08:00Z,0000380,00000600,0003.48,0002.65,0001.58,0000.32,0000.20,-000.13,0000.33,0000.15,0000.12,27.8,03.9,0670.8,34.8
2016-08-10T02:09:00Z,0000380,00000600,0003.31,0002.60,0001.87,0000.49,0000.30,0000.59,0000.07,0000.23,0000.32,27.8,04.0,0670.8,34.8
2016-08-10T02:10:00Z,0000380,00000600,0003.04,0002.69,0001.81,0001.03,0000.30,-000.06,0000.24,0000.21,-000.04,27.8,03.9,0670.7,34.8
2016-08-10T02:11:00Z,0000380,00000600,0003.11,0002.72,0001.59,0000.60,0000.35,0000.70,0000.15,0000.03,0000.11,27.8,03.9,0670.8,34.8
2016-08-10T02:12:00Z,0000380,00000600,0003.42,0002.46,0001.07,-000.21,0000.11,0000.40,0000.01,0000.24,0000.21,27.8,03.9,0670.8,34.8
2016-08-10T02:13:00Z,0000380,00000600,0003.74,0002.16,0001.24,0000.33,0000.44,0000.46,0000.22,0000.20,0000.03,27.8,03.9,0670.8,34.8
2016-08-10T02:14:00Z,0000380,00000600,0003.09,0002.16,0001.25,0000.24,-000.11,0000.52,0000.06,-000.11,0000.23,27.8,03.9,0670.7,34.8
2016-08-10T02:15:00Z,0000380,00000600,0002.92,0002.56,0001.05,0000.71,0000.28,0000.22,0000.20,0000.40,0000.19,27.8,03.9,0670.7,34.8
2016-08-10T02:16:00Z,0000380,00000600,0002.93,0003.08,0001.19,0001.01,0000.35,0000.05,0000.32,-000.02,0000.16,27.8,03.9,0670.7,34.8
2016-08-10T02:17:00Z,0000380,00000600,0004.30,0002.27,0002.00,0000.21,0000.25,0000.35,0000.24,0000.08,-000.11,27.8,03.9,0670.7,34.8
2016-08-10T02:18:00Z,0000380,00000600,0003.14,0002.88,0001.29,-000.02,0000.00,0000.44,-000.00,0000.34,0000.28,27.8,03.8,0670.8,34.8
2016-08-10T02:19:00Z,0000380,00000600,0002.70,0001.59,0001.29,0000.33,0000.32,0000.43,0000.30,0000.13,-000.24,27.8,03.8,0670.7,34.8
2016-08-10T02:20:00Z,0000380,00000600,0003.28,0002.54,0001.10,0000.22,0000.30,0000.29,0000.27,0000.20,0000.38,27.8,03.8,0670.7,34.8
2016-08-10T02:21:00Z,0000380,00000600,0003.13,0001.93,0001.56,0000.05,0000.61,0000.36,0000.10,0000.17,0000.01,27.8,03.7,0670.7,34.8
2016-08-10T02:22:00Z,0000380,00000600,0003.18,0001.82,0001.82,0000.36,0000.58,0000.00,0000.21,0000.25,0000.23,27.8,03.8,0670.6,34.8
2016-08-10T02:23:00Z,0000380,00000600,0003.46,0002.55,0001.49,-000.46,0000.22,0000.57,-000.03,0000.01,-000.06,27.8,03.8,0670.7,34.8
2016-08-10T02:24:00Z,0000380,00000600,0003.69,0002.63,0001.46,0000.76,0000.06,0000.55,0000.28,-000.07,0000.47,27.8,03.8,0670.7,34.8
2016-08-10T02:25:00Z,0000380,00000600,0002.43,0002.05,0001.95,0000.65,0000.19,0000.62,0000.06,0000.08,-000.10,27.8,03.8,0670.6,34.8
2016-08-10T02:26:00Z,0000380,00000600,0002.83,0002.57,0001.69,0000.59,-000.14,0000.35,0000.20,0000.21,0000.01,27.8,03.8,0670.7,34.8
2016-08-10T02:27:00Z,0000380,00000600,0002.49,0002.43,0001.62,0000.71,0000.38,0000.54,0000.31,0000.31,0000.25,27.8,03.8,0670.7,34.8
2016-08-10T02:28:00Z,0000380,00000600,0003.26,0002.94,0001.73,0000.43,0000.05,0000.16,0000.02,0000.00,-000.09,27.8,03.8,0670.7,34.8
2016-08-10T02:29:00Z,0000380,00000600,0003.36,0001.84,0001.61,0000.35,0000.08,0000.08,0000.07,0000.27,0000.06,27.8,03.8,0670.7,34.8
2016-08-10T02:30:00Z,0000380,00000600,0002.66,0001.98,0001.28,0000.65,0000.36,0000.73,0000.35,0000.15,0000.21,27.8,03.8,0670.7,34.9
2016-08-10T02:31:00Z,0000380,00000600,0002.97,0002.23,0001.88,0000.16,0000.25,0000.30,0000.07,-000.04,0000.20,27.8,03.8,0670.7,34.9
2016-08-10T02:32:00Z,0000380,00000600,0003.01,0002.24,0000.95,0000.57,0000.00,0000.08,0000.16,0000.22,-000.05,27.8,03.8,0670.7,34.9
2016-08-10T02:33:00Z,0000380,00000600,0002.32,0002.21,0001.26,0000.14,0000.24,0000.25,0000.10,0000.12,0000.27,27.8,03.7,0670.7,34.9
2016-08-10T02:34:00Z,0000380,00000600,0003.63,0002.54,0001.13,0000.47,0000.05,-000.22,0000.31,0000.15,0000.23,27.8,03.8,0670.7,34.9
2016-08-10T02:35:00Z,0000380,00000600,0002.74,0002.27,0001.26,-000.02,0000.05,0000.36,0000.00,0000.26,0000.12,27.8,03.7,0670.7,34.9
2016-08-10T02:36:00Z,0000380,00000600,0002.67,0002.29,0001.46,0000.55,-000.27,0000.22,0000.47,0000.16,0000.10,27.8,03.7,0670.7,34.9
2016-08-10T02:37:00Z,0000380,00000600,0003.43,0002.44,0001.48,0000.65,-000.08,0000.35,-000.01,0000.02,-000.21,27.8,03.7,0670.7,34.9
2016-08-10T02:38:00Z,0000380,00000600,0003.34,0001.90,0001.41,0000.47,0000.19,0000.11,0000.08,0000.17,0000.37,27.8,03.7,0670.7,34.9
2016-08-10T02:39:00Z,0000380,00000600,0002.47,0002.25,0001.41,0000.55,0000.47,0000.33,0000.27,0000.09,0000.02,27.8,03.7,0670.7,34.9
2016-08-10T02:40:00Z,0000380,00000600,0003.72,0002.24,0001.53,0000.60,-000.28,0000.19,0000.35,0000.13,0000.15,27.8,03.7,0670.7,34.9
2016-08-10T02:41:00Z,0000380,00000600,0003.05,0002.44,0001.40,-000.02,-000.05,0000.25,0000.03,0000.12,0000.00,27.8,03.7,0670.7,34.9
2016-08-10T02:42:00Z,0000380,00000600,0002.29,0002.38,0001.58,0001.00,0000.54,0000.08,0000.29,0000.17,0000.17,27.8,03.6,0670.7,34.9
2016-08-10T02:43:00Z,0000380,00000600,0003.61,0002.10,0002.33,0000.40,-000.11,0000.73,0000.07,0000.17,0000.20,27.8,03.6,0670.7,34.9
2016-08-10T02:44:00Z,0000380,00000600,0002.88,0002.57,0001.44,0000.54,0000.00,0000.14,0000.18,0000.11,0000.12,27.8,03.6,0670.8,34.9
2016-08-10T02:45:00Z,0000380,00000600,0003.27,0002.35,0001.84,0000.32,0000.22,0000.29,0000.18,0000.09,-000.03,27.8,03.6,0670.8,34.8
2016-08-10T02:46:00Z,0000380,00000600,0002.68,0001.72,0001.12,0000.60,0000.19,-000.02,0000.09,0000.09,-000.09,27.8,03.6,0670.8,34.8
2016-08-10T02:47:00Z,0000380,00000600,0002.89,0001.88,0001.45,0000.79,0000.61,0000.19,0000.16,0000.17,0000.24,27.8,03.6,0670.8,34.8
2016-08-10T02:48:00Z,0000380,00000600,0002.87,0002.14,0001.61,0000.16,0000.05,0000.76,0000.25,0000.08,0000.14,27.8,03.6,0670.8,34.8
2016-08-10T02:49:00Z,0000380,00000600,0003.27,0001.65,0001.84,0000.02,0000.39,0000.73,0000.07,0000.29,0000.25,27.8,03.6,0670.8,34.8
2016-08-10T02:50:00Z,0000380,00000600,0003.03,0001.61,0001.67,0000.60,-000.16,0000.40,0000.20,0000.07,-000.03,27.8,03.6,0670.9,34.8
2016-08-10T02:51:00Z,0000380,00000600,0002.10,0001.72,0000.99,0000.17,0000.28,0000.41,0000.21,0000.27,0000.00,27.8,03.6,0670.9,34.8
2016-08-10T02:52:00Z,0000380,00000600,0002.69,0001.48,0001.42,0000.47,-000.05,0000.24,0000.07,0000.09,0000.13,27.8,03.6,0670.9,34.8
2016-08-10T02:53:00Z,0000380,00000600,0001.99,0001.37,0001.79,0000.78,0000.20,0000.35,0000.07,-000.00,0000.15,27.8,03.5,0670.9,34.8
2016-08-10T02:54:00Z,0000380,00000600,0001.74,0002.39,0001.32,0000.35,0000.52,0000.35,0000.28,0000.22,-000.21,27.8,03.5,0670.9,34.8
2016-08-10T02:55:00Z,0000380,00000600,0002.35,0001.89,0001.75,0000.24,0000.35,0000.17,0000.06,0000.03,0000.27,27.8,03.4,0670.8,34.8
2016-08-10T02:56:00Z,0000380,00000600,0002.37,0001.88,0001.38,0000.49,0000.41,0000.41,0000.04,-000.04,-000.13,27.8,03.5,0670.8,34.8
2016-08-10T02:57:00Z,0000380,40000600,,,,,,,,,,,,0670.9,34.8
2016-08-10T02:58:00Z,0000380,60000600,,,,,,,,,,27.6,03.6,0669.8,34.8
2016-08-10T02:59:00Z,0000380,20000600,,,,,,,,,,27.5,03.6,0669.8,34.8
2016-08-10T03:00:00Z,0000380,20000600,,,,,,,,,,27.5,03.6,0669.8,34.8
2016-08-10T03:01:00Z,0000380,20000600,,,,,,,,,,27.5,03.6,0669.8,34.8
2016-08-10T03:02:00Z,0000380,20000600,,,,,,,,,,27.5,03.6,0669.8,34.8
2016-08-10T03:03:00Z,0000380,60000600,,,,,,,,,,27.6,03.6,0669.8,34.8
2016-08-10T03:04:00Z,0000380,40000600,0002.89,0001.33,0001.39,0000.47,-000.24,0000.22,0000.23,0000.08,-000.15,27.8,03.5,0670.8,34.8
2016-08-10T03:05:00Z,0000380,00000600,0003.06,0000.99,0000.49,0000.11,0000.47,-000.19,0000.12,-000.14,0000.16,27.8,03.4,0670.8,34.8
2016-08-10T03:06:00Z,0000380,00000600,0003.48,0001.39,0001.26,0000.28,0000.54,-000.10,0000.06,-000.02,0000.35,27.8,03.4,0670.8,34.8
2016-08-10T03:07:00Z,0000380,00000600,0003.12,0001.94,0001.04,0001.03,0000.43,0000.19,0000.10,0000.27,-000.29,27.7,03.4,0670.8,34.8
2016-08-10T03:08:00Z,0000380,00000600,0002.78,0001.82,0000.59,0000.66,0000.49,0000.38,0000.07,0000.14,0000.10,27.7,03.5,0670.8,34.8
2016-08-10T03:09:00Z,0000380,00000600,0003.44,0001.69,0001.37,0000.44,0000.24,0000.27,0000.27,0000.16,0000.26,27.8,03.4,0670.8,34.8
2016-08-10T03:10:00Z,0000380,00000600,0002.56,0001.47,0001.56,0000.32,0000.25,0001.05,0000.01,0000.08,0000.13,27.7,03.5,0670.8,34.8
2016-08-10T03:11:00Z,0000380,00000600,0002.74,0001.63,0000.96,0000.55,0000.09,-000.02,0000.27,0000.03,-000.05,27.8,03.4,0670.8,34.8
2016-08-10T03:12:00Z,0000380,00000600,0002.10,0001.40,0001.44,-000.11,0000.14,0000.48,-000.06,0000.10,0000.22,27.8,03.4,0670.8,34.8